Location: Azul
(36.7830°S, 59.8500°W)
Time: 22:53:01
(UTC-03:00)

TIGRISAT - Pass Details

Date: 24 October 2021
Orbit: 603 x 689 km, 97.7° (Epoch: 27 November)

Event Time Altitude Azimuth Distance (km) Brightness Sun altitude
Rises 20:10:25 0° 340° (NNW) 2,849 ? -9.5°
Reaches altitude 10° 20:13:02 10° 323° (NW) 1,956 ? -9.9°
Maximum altitude 20:16:13 21° 274° (W) 1,406 ? -10.5°
Drops below altitude 10° 20:19:28 10° 225° (SW) 1,989 ? -11.1°
Sets 20:22:10 0° 208° (SSW) 2,914 ? -11.6°
